Location: Im Fang
(46.6019°N, 7.2397°E)
Time: 01:29:08
(UTC+00:00)

Cosmos 2297 Rocket - Pass Details

Date: 08 December 2019
Orbit: 838 x 845 km, 71.0° (Epoch: 19 January)

Event Time Altitude Azimuth Distance (km) Brightness Sun altitude
Exits shadow 04:10:24 26° 4° (N) 1,593 3.6 -28.5°
Drops below altitude 10° 04:13:00 10° 18° (NNE) 2,467 4.8 -28.0°
Sets 04:15:33 0° 24° (NNE) 3,407 5.6 -27.6°
